Time,TemperatureF,DewpointF,PressureIn,WindDirection,WindDirectionDegrees,WindSpeedMPH,WindSpeedGustMPH,Humidity,HourlyPrecipIn,Conditions,Clouds,dailyrainin,SoftwareType,DateUTC
2013-11-29 00:00:00,27.7,22.0,30.32,NW,317,2.0,6.0,79,0.00,,,0.00,weatherlink.com 1.10,2013-11-29 05:00:00,
2013-11-29 00:15:00,27.6,22.0,30.32,WNW,294,1.0,5.0,79,0.00,,,0.00,weatherlink.com 1.10,2013-11-29 05:15:00,
2013-11-29 00:30:00,27.6,22.0,30.33,WNW,290,2.0,4.0,80,0.00,,,0.00,weatherlink.com 1.10,2013-11-29 05:30:00,
2013-11-29 00:45:00,27.6,22.0,30.33,WNW,290,3.0,3.0,80,0.00,,,0.00,weatherlink.com 1.10,2013-11-29 05:45:00,
2013-11-29 01:00:00,27.7,22.0,30.33,WNW,282,3.0,6.0,80,0.00,,,0.00,weatherlink.com 1.10,2013-11-29 06:00:00,
2013-11-29 01:15:00,27.8,22.0,30.34,WNW,288,4.0,6.0,80,0.00,,,0.00,weatherlink.com 1.10,2013-11-29 06:15:00,
2013-11-29 01:30:00,27.7,22.0,30.34,WNW,292,4.0,5.0,80,0.00,,,0.00,weatherlink.com 1.10,2013-11-29 06:30:00,
2013-11-29 01:45:00,27.6,22.0,30.34,West,280,3.0,5.0,80,0.00,,,0.00,weatherlink.com 1.10,2013-11-29 06:45:00,
2013-11-29 02:00:00,27.6,22.0,30.35,WNW,293,2.0,5.0,80,0.00,,,0.00,weatherlink.com 1.10,2013-11-29 07:00:00,
2013-11-29 02:15:00,27.6,22.0,30.35,WNW,290,2.0,4.0,80,0.00,,,0.00,weatherlink.com 1.10,2013-11-29 07:15:00,
2013-11-29 02:30:00,27.5,22.0,30.36,WNW,301,3.0,3.0,81,0.00,,,0.00,weatherlink.com 1.10,2013-11-29 07:30:00,
2013-11-29 02:45:00,27.5,22.0,30.37,NW,311,2.0,4.0,80,0.00,,,0.00,weatherlink.com 1.10,2013-11-29 07:45:00,
2013-11-29 03:00:00,27.6,23.0,30.37,NW,311,0.0,2.0,81,0.00,,,0.00,weatherlink.com 1.10,2013-11-29 08:00:00,
2013-11-29 03:15:00,27.5,22.0,30.38,NW,326,1.0,3.0,80,0.00,,,0.00,weatherlink.com 1.10,2013-11-29 08:15:00,
2013-11-29 03:30:00,27.5,22.0,30.38,NW,310,0.0,2.0,81,0.00,,,0.00,weatherlink.com 1.10,2013-11-29 08:30:00,
2013-11-29 03:45:00,27.4,22.0,30.39,NW,310,0.0,2.0,81,0.00,,,0.00,weatherlink.com 1.10,2013-11-29 08:45:00,
2013-11-29 04:00:00,27.3,22.0,30.39,NW,310,0.0,1.0,81,0.00,,,0.00,weatherlink.com 1.10,2013-11-29 09:00:00,
2013-11-29 04:15:00,27.0,22.0,30.39,NW,310,0.0,1.0,82,0.00,,,0.00,weatherlink.com 1.10,2013-11-29 09:15:00,
2013-11-29 04:30:00,26.8,22.0,30.39,NW,310,0.0,0.0,83,0.00,,,0.00,weatherlink.com 1.10,2013-11-29 09:30:00,
2013-11-29 04:45:00,26.5,22.0,30.40,NW,310,0.0,2.0,84,0.00,,,0.00,weatherlink.com 1.10,2013-11-29 09:45:00,
2013-11-29 05:00:00,26.5,22.0,30.40,NW,310,0.0,2.0,84,0.00,,,0.00,weatherlink.com 1.10,2013-11-29 10:00:00,
2013-11-29 05:15:00,26.6,22.0,30.41,NW,310,0.0,1.0,84,0.00,,,0.00,weatherlink.com 1.10,2013-11-29 10:15:00,
2013-11-29 05:31:00,26.5,23.0,30.42,NW,310,0.0,0.0,85,0.00,,,0.00,weatherlink.com 1.10,2013-11-29 10:31:00,
2013-11-29 05:45:00,26.4,23.0,30.43,NW,310,0.0,0.0,86,0.00,,,0.00,weatherlink.com 1.10,2013-11-29 10:45:00,
2013-11-29 06:00:00,26.3,23.0,30.43,NW,310,1.0,1.0,86,0.00,,,0.00,weatherlink.com 1.10,2013-11-29 11:00:00,
2013-11-29 06:15:00,26.0,23.0,30.43,NW,310,0.0,1.0,87,0.00,,,0.00,weatherlink.com 1.10,2013-11-29 11:15:00,
2013-11-29 06:30:00,25.7,22.0,30.44,NW,310,0.0,0.0,86,0.00,,,0.00,weatherlink.com 1.10,2013-11-29 11:30:00,
2013-11-29 06:45:00,25.6,23.0,30.45,NW,310,0.0,0.0,88,0.00,,,0.00,weatherlink.com 1.10,2013-11-29 11:45:00,
2013-11-29 07:01:00,25.3,22.0,30.46,NW,310,0.0,1.0,88,0.00,,,0.00,weatherlink.com 1.10,2013-11-29 12:01:00,
2013-11-29 07:16:00,25.3,23.0,30.46,NW,310,0.0,0.0,89,0.00,,,0.00,weatherlink.com 1.10,2013-11-29 12:16:00,
2013-11-29 07:31:00,25.3,23.0,30.47,NW,310,0.0,1.0,89,0.00,,,0.00,weatherlink.com 1.10,2013-11-29 12:31:00,
2013-11-29 07:46:00,25.4,23.0,30.48,NW,310,1.0,2.0,90,0.00,,,0.00,weatherlink.com 1.10,2013-11-29 12:46:00,
2013-11-29 08:01:00,25.6,23.0,30.48,NW,310,0.0,0.0,89,0.00,,,0.00,weatherlink.com 1.10,2013-11-29 13:01:00,
2013-11-29 08:16:00,25.7,23.0,30.49,NW,310,0.0,1.0,88,0.00,,,0.00,weatherlink.com 1.10,2013-11-29 13:16:00,
2013-11-29 08:31:00,25.6,23.0,30.49,NW,310,0.0,1.0,88,0.00,,,0.00,weatherlink.com 1.10,2013-11-29 13:31:00,
2013-11-29 08:46:00,25.8,23.0,30.50,NW,310,0.0,0.0,89,0.00,,,0.00,weatherlink.com 1.10,2013-11-29 13:46:00,
2013-11-29 09:01:00,26.2,23.0,30.50,NW,310,1.0,2.0,88,0.00,,,0.00,weatherlink.com 1.10,2013-11-29 14:01:00,
2013-11-29 09:16:00,26.9,24.0,30.50,NW,310,0.0,1.0,87,0.00,,,0.00,weatherlink.com 1.10,2013-11-29 14:16:00,
2013-11-29 09:31:00,27.5,24.0,30.50,NW,310,0.0,2.0,86,0.00,,,0.00,weatherlink.com 1.10,2013-11-29 14:31:00,
2013-11-29 09:46:00,28.1,24.0,30.51,NW,310,1.0,1.0,83,0.00,,,0.00,weatherlink.com 1.10,2013-11-29 14:46:00,
2013-11-29 10:01:00,28.8,23.0,30.51,NNE,31,0.0,2.0,80,0.00,,,0.00,weatherlink.com 1.10,2013-11-29 15:01:00,
2013-11-29 10:16:00,30.0,24.0,30.52,ENE,75,1.0,3.0,77,0.00,,,0.00,weatherlink.com 1.10,2013-11-29 15:16:00,
2013-11-29 10:31:00,30.8,23.0,30.52,SSE,148,1.0,4.0,73,0.00,,,0.00,weatherlink.com 1.10,2013-11-29 15:31:00,
2013-11-29 10:46:00,31.0,23.0,30.52,SSE,162,1.0,3.0,73,0.00,,,0.00,weatherlink.com 1.10,2013-11-29 15:46:00,
2013-11-29 11:01:00,32.1,22.0,30.52,SSE,162,0.0,2.0,67,0.00,,,0.00,weatherlink.com 1.10,2013-11-29 16:01:00,
2013-11-29 11:16:00,32.7,23.0,30.52,South,173,3.0,4.0,67,0.00,,,0.00,weatherlink.com 1.10,2013-11-29 16:16:00,
2013-11-29 11:31:00,32.8,21.0,30.51,SE,132,0.0,4.0,63,0.00,,,0.00,weatherlink.com 1.10,2013-11-29 16:31:00,
2013-11-29 11:46:00,32.9,22.0,30.51,East,82,2.0,3.0,64,0.00,,,0.00,weatherlink.com 1.10,2013-11-29 16:46:00,
2013-11-29 12:01:00,33.4,22.0,30.50,NW,312,3.0,4.0,64,0.00,,,0.00,weatherlink.com 1.10,2013-11-29 17:01:00,
2013-11-29 12:16:00,33.7,23.0,30.50,ENE,78,2.0,3.0,65,0.00,,,0.00,weatherlink.com 1.10,2013-11-29 17:16:00,
2013-11-29 12:31:00,33.9,22.0,30.49,SE,138,1.0,4.0,62,0.00,,,0.00,weatherlink.com 1.10,2013-11-29 17:31:00,
2013-11-29 12:46:00,33.5,22.0,30.48,ESE,115,3.0,5.0,63,0.00,,,0.00,weatherlink.com 1.10,2013-11-29 17:46:00,
2013-11-29 13:01:00,33.7,23.0,30.48,SE,137,2.0,8.0,66,0.00,,,0.00,weatherlink.com 1.10,2013-11-29 18:01:00,
2013-11-29 13:16:00,33.5,22.0,30.48,SW,219,2.0,6.0,64,0.01,,,0.01,weatherlink.com 1.10,2013-11-29 18:16:00,
2013-11-29 13:31:00,33.9,22.0,30.48,SW,215,1.0,3.0,63,0.01,,,0.01,weatherlink.com 1.10,2013-11-29 18:31:00,
2013-11-29 13:46:00,34.1,22.0,30.48,SW,220,0.0,5.0,61,0.01,,,0.01,weatherlink.com 1.10,2013-11-29 18:46:00,
2013-11-29 14:01:00,34.4,22.0,30.48,SSW,192,2.0,9.0,60,0.01,,,0.01,weatherlink.com 1.10,2013-11-29 19:01:00,
2013-11-29 14:16:00,34.6,23.0,30.47,East,97,2.0,5.0,63,0.00,,,0.01,weatherlink.com 1.10,2013-11-29 19:16:00,
2013-11-29 14:31:00,34.1,23.0,30.46,SSE,151,6.0,7.0,63,0.00,,,0.01,weatherlink.com 1.10,2013-11-29 19:31:00,
2013-11-29 14:46:00,34.2,23.0,30.46,SSE,149,0.0,7.0,63,0.00,,,0.01,weatherlink.com 1.10,2013-11-29 19:46:00,
2013-11-29 15:01:00,35.0,23.0,30.46,ESE,108,3.0,7.0,61,0.00,,,0.01,weatherlink.com 1.10,2013-11-29 20:01:00,
2013-11-29 15:16:00,34.5,23.0,30.45,SE,146,2.0,8.0,63,0.00,,,0.01,weatherlink.com 1.10,2013-11-29 20:16:00,
2013-11-29 15:31:00,34.1,23.0,30.45,SE,136,5.0,9.0,63,0.00,,,0.01,weatherlink.com 1.10,2013-11-29 20:31:00,
2013-11-29 15:46:00,34.1,23.0,30.45,SE,130,4.0,10.0,63,0.00,,,0.01,weatherlink.com 1.10,2013-11-29 20:46:00,
2013-11-29 16:01:00,34.1,22.0,30.46,ESE,119,7.0,8.0,62,0.00,,,0.01,weatherlink.com 1.10,2013-11-29 21:01:00,
2013-11-29 16:16:00,34.0,22.0,30.46,East,86,5.0,9.0,62,0.00,,,0.01,weatherlink.com 1.10,2013-11-29 21:16:00,
2013-11-29 16:31:00,33.7,22.0,30.46,SE,130,3.0,7.0,63,0.00,,,0.01,weatherlink.com 1.10,2013-11-29 21:31:00,
2013-11-29 16:46:00,33.0,22.0,30.46,SE,143,3.0,7.0,65,0.00,,,0.01,weatherlink.com 1.10,2013-11-29 21:46:00,
2013-11-29 17:01:00,32.5,22.0,30.45,ESE,117,3.0,6.0,65,0.00,,,0.01,weatherlink.com 1.10,2013-11-29 22:01:00,
2013-11-29 17:16:00,32.0,22.0,30.45,SE,132,2.0,5.0,66,0.00,,,0.01,weatherlink.com 1.10,2013-11-29 22:16:00,
2013-11-29 17:31:00,31.5,22.0,30.46,SE,132,0.0,2.0,67,0.00,,,0.01,weatherlink.com 1.10,2013-11-29 22:31:00,
2013-11-29 17:46:00,30.5,22.0,30.46,SE,132,1.0,2.0,71,0.00,,,0.01,weatherlink.com 1.10,2013-11-29 22:46:00,
2013-11-29 18:01:00,29.9,22.0,30.45,SE,132,0.0,1.0,72,0.00,,,0.01,weatherlink.com 1.10,2013-11-29 23:01:00,
2013-11-29 18:16:00,29.0,21.0,30.45,SE,132,0.0,1.0,73,0.00,,,0.01,weatherlink.com 1.10,2013-11-29 23:16:00,
2013-11-29 18:31:00,28.5,22.0,30.44,SE,132,0.0,1.0,75,0.00,,,0.01,weatherlink.com 1.10,2013-11-29 23:31:00,
2013-11-29 18:46:00,28.2,22.0,30.45,SE,132,0.0,0.0,76,0.00,,,0.01,weatherlink.com 1.10,2013-11-29 23:46:00,
2013-11-29 19:01:00,27.8,21.0,30.44,SE,132,2.0,2.0,77,0.00,,,0.01,weatherlink.com 1.10,2013-11-30 00:01:00,
2013-11-29 19:16:00,28.3,22.0,30.44,ESE,121,1.0,4.0,76,0.00,,,0.01,weatherlink.com 1.10,2013-11-30 00:16:00,
2013-11-29 19:31:00,29.0,22.0,30.43,SE,125,3.0,4.0,74,0.00,,,0.01,weatherlink.com 1.10,2013-11-30 00:31:00,
2013-11-29 19:46:00,29.3,21.0,30.43,SE,134,3.0,5.0,72,0.00,,,0.01,weatherlink.com 1.10,2013-11-30 00:46:00,
2013-11-29 20:01:00,29.2,22.0,30.42,ESE,122,4.0,8.0,73,0.00,,,0.01,weatherlink.com 1.10,2013-11-30 01:01:00,
2013-11-29 20:17:00,29.2,22.0,30.42,ESE,121,3.0,6.0,73,0.00,,,0.01,weatherlink.com 1.10,2013-11-30 01:17:00,
2013-11-29 20:32:00,28.9,22.0,30.41,SE,134,4.0,7.0,74,0.00,,,0.01,weatherlink.com 1.10,2013-11-30 01:32:00,
2013-11-29 20:47:00,28.8,22.0,30.41,SE,139,4.0,8.0,74,0.00,,,0.01,weatherlink.com 1.10,2013-11-30 01:47:00,
2013-11-29 21:02:00,29.0,22.0,30.41,SE,136,5.0,10.0,74,0.00,,,0.01,weatherlink.com 1.10,2013-11-30 02:02:00,
2013-11-29 21:17:00,28.8,22.0,30.40,SE,133,6.0,8.0,75,0.00,,,0.01,weatherlink.com 1.10,2013-11-30 02:17:00,
2013-11-29 21:32:00,28.9,22.0,30.39,ESE,110,4.0,11.0,75,0.00,,,0.01,weatherlink.com 1.10,2013-11-30 02:32:00,
2013-11-29 21:47:00,28.8,22.0,30.39,ESE,111,4.0,7.0,75,0.00,,,0.01,weatherlink.com 1.10,2013-11-30 02:47:00,
2013-11-29 22:02:00,28.7,22.0,30.39,SE,130,3.0,8.0,75,0.00,,,0.01,weatherlink.com 1.10,2013-11-30 03:02:00,
2013-11-29 22:17:00,28.8,22.0,30.39,SE,140,4.0,8.0,75,0.00,,,0.01,weatherlink.com 1.10,2013-11-30 03:17:00,
2013-11-29 22:32:00,28.9,22.0,30.39,SE,126,6.0,9.0,75,0.00,,,0.01,weatherlink.com 1.10,2013-11-30 03:32:00,
2013-11-29 22:47:00,28.9,22.0,30.39,SE,134,5.0,8.0,75,0.00,,,0.01,weatherlink.com 1.10,2013-11-30 03:47:00,
2013-11-29 23:02:00,29.0,22.0,30.39,SE,131,3.0,9.0,76,0.00,,,0.01,weatherlink.com 1.10,2013-11-30 04:02:00,
2013-11-29 23:17:00,29.2,23.0,30.38,SSE,157,5.0,12.0,76,0.00,,,0.01,weatherlink.com 1.10,2013-11-30 04:17:00,
2013-11-29 23:32:00,29.3,22.0,30.37,SE,125,7.0,13.0,75,0.00,,,0.01,weatherlink.com 1.10,2013-11-30 04:32:00,
2013-11-29 23:47:00,29.3,22.0,30.37,SSE,153,9.0,12.0,75,0.00,,,0.01,weatherlink.com 1.10,2013-11-30 04:47:00,